Regional Weather Roundup
Issued by NWS

Home | Current Version | Previous Version | Graphics & Text | Print | Product List | Glossary On
Versions: 1 2 3 4 5 6 7 8 9 10 11 12 13 14 15 16 17 18 19 20 21 22 23 24 25 26 27 28 29 30 31 32 33 34 35 36 37 38 39 40 41 42 43 44 45 46 47 48 49 50
000
ASUS44 KMEG 250500
RWRTN
TENNESSEE HOURLY STATE WEATHER ROUNDUP
NATIONAL WEATHER SERVICE MEMPHIS TN
1200 AM CDT MON SEP 25 2017

TNZ002-004-019-021-049-052-054-088>092-250600-
WEST TENNESSEE

CITY           SKY/WX    TMP DP  RH WIND       PRES   REMARKS
MEMPHIS INTL   PTCLDY    75  69  81 E3        29.97S
NWS MEMPHIS      N/A     70 N/A N/A MISG        N/A
JACKSON        CLEAR     67  67 100 CALM      29.99F
DYERSBURG      CLEAR     69  68  96 E3        29.99F
$$

TNZ008-025-027-028-033-062-065-066-250600-
NORTH MIDDLE TENNESSEE

CITY           SKY/WX    TMP DP  RH WIND       PRES   REMARKS
NASHVILLE      PTCLDY    74  65  73 CALM      30.01F
CLARKSVILLE    CLOUDY    70  67  90 CALM      30.00F FOG
SMYRNA           N/A    N/A N/A N/A MISG        N/A
CROSSVILLE     CLEAR     63  61  93 CALM      30.08F FOG
$$

TNZ061-075-076-078-094-096-097-250600-
SOUTH MIDDLE TENNESSEE

CITY           SKY/WX    TMP DP  RH WIND       PRES   REMARKS
$$

TNZ017-018-042-046-047-250600-
NORTHEAST TENNESSEE

CITY           SKY/WX    TMP DP  RH WIND       PRES   REMARKS
TRI CITIES     MOCLDY    66  59  78 CALM      30.08F
$$

TNZ012-013-036-069-073-074-250600-
CENTRAL EAST TENNESSEE

CITY           SKY/WX    TMP DP  RH WIND       PRES   REMARKS
KNOXVILLE      PTCLDY    69  63  81 CALM      30.01F
OAK RIDGE      CLEAR     68  64  87 CALM      30.03F
GATLINBURG     CLEAR     64  61  88 CALM      30.02F
$$

TNZ083-085-099-250600-
SOUTHEAST TENNESSEE

CITY           SKY/WX    TMP DP  RH WIND       PRES   REMARKS
CHATTANOOGA    CLEAR     70  67  90 CALM      30.02S
$$

SKY/WX REPORTED AS FAIR MEANS FEW OR NO CLOUDS BELOW
12 THOUSAND FEET.




USA.gov is the U.S. government's official web portal to all federal, state and local government web resources and services.